Temp
-5 -6 -6 -7 -7 -7 -7 -7 -7 -7 -8 -8 -8 -8 -8 -8 -8 -8 -7 -7 -7 -7 -7 -7 -8 -8 -8 -8 -8 -8 -8 -8 -9 -8 -8 -9 -9 -10 -10 -10 -10 -10 -10 -10 -10
-5 -6 -6 -6 -7 -7 -7 -7 -7 -7 -7 -7 -8 -7 -7 -7 -7 -7 -7 -7 -7 -7 -8 -8 -8 -8 -8 -8 -8 -8 -8 -8 -9 -9 -9 -10 -10 -10 -10 -10 -10 -11 -11 -11 -11
-5 -6 -6 -6 -7 -7 -7 -7 -7 -7 -7 -7 -7 -7 -7 -7 -7 -7 -7 -7 -8 -8 -8 -8 -7 -7 -7 -7 -8 -8 -9 -9 -9 -9 -10 -10 -10 -10 -11 -11 -11 -11 -12 -12 -12
-5 -5 -6 -6 -6 -7 -7 -7 -7 -7 -7 -7 -7 -7 -7 -7 -7 -7 -7 -8 -8 -8 -8 -8 -8 -7 -8 -8 -8 -9 -9 -9 -9 -10 -10 -10 -10 -11 -11 -11 -11 -12 -12 -12 -11
-5 -5 -6 -6 -6 -7 -7 -7 -7 -7 -7 -7 -7 -7 -7 -7 -7 -8 -8 -8 -8 -8 -8 -7 -7 -8 -8 -8 -9 -9 -9 -9 -9 -10 -10 -10 -11 -11 -11 -11 -12 -12 -11 -11 -12
-5 -5 -6 -6 -6 -7 -7 -7 -7 -7 -7 -7 -7 -7 -7 -7 -8 -8 -8 -8 -8 -7 -7 -8 -8 -8 -8 -8 -9 -8 -9 -9 -9 -9 -10 -11 -11 -11 -11 -12 -12 -12 -12 -11 -12
-5 -5 -6 -6 -6 -7 -7 -7 -7 -7 -7 -7 -7 -7 -7 -7 -8 -8 -7 -7 -7 -7 -7 -7 -8 -8 -8 -8 -8 -8 -8 -8 -9 -9 -10 -11 -11 -11 -11 -12 -12 -11 -11 -12 -12
-5 -5 -5 -6 -6 -7 -7 -7 -7 -7 -7 -7 -7 -7 -7 -7 -7 -7 -7 -7 -7 -7 -7 -7 -7 -7 -7 -7 -7 -7 -8 -8 -9 -10 -10 -11 -11 -11 -11 -12 -12 -12 -12 -12 -13
-5 -5 -5 -6 -6 -7 -6 -6 -6 -6 -7 -7 -7 -7 -7 -7 -7 -7 -7 -7 -7 -7 -7 -7 -7 -7 -7 -7 -7 -8 -8 -8 -9 -10 -10 -11 -11 -11 -12 -12 -12 -12 -12 -13 -14
-5 -5 -5 -6 -6 -6 -6 -6 -6 -6 -6 -7 -7 -7 -7 -7 -7 -7 -7 -7 -7 -7 -7 -7 -8 -8 -8 -8 -8 -8 -8 -9 -10 -10 -11 -11 -11 -12 -12 -12 -12 -12 -13 -13 -15
-5 -5 -5 -5 -5 -6 -6 -6 -6 -6 -6 -6 -7 -7 -7 -7 -7 -7 -7 -7 -7 -8 -8 -8 -8 -8 -8 -8 -8 -8 -9 -9 -10 -11 -11 -11 -12 -12 -12 -12 -12 -13 -14 -14 -16
-5 -5 -5 -5 -5 -5 -6 -6 -6 -6 -6 -6 -7 -7 -7 -7 -7 -7 -7 -8 -8 -8 -8 -8 -8 -8 -8 -8 -8 -9 -9 -10 -10 -11 -11 -11 -12 -12 -12 -12 -12 -13 -14 -15 -18
-5 -5 -6 -6 -6 -6 -6 -6 -6 -6 -6 -6 -7 -7 -7 -7 -7 -7 -7 -7 -7 -7 -7 -7 -7 -8 -8 -8 -9 -9 -10 -10 -11 -11 -12 -12 -12 -12 -12 -12 -14 -15 -16 -19 -20
-6 -6 -6 -6 -6 -6 -6 -6 -6 -6 -6 -7 -7 -7 -7 -7 -7 -7 -7 -7 -7 -7 -7 -7 -8 -8 -8 -9 -9 -9 -10 -10 -11 -11 -12 -12 -12 -12 -12 -13 -14 -15 -17 -19 -20
-6 -6 -6 -6 -6 -6 -6 -6 -6 -6 -6 -7 -7 -7 -7 -7 -7 -7 -7 -7 -7 -8 -8 -8 -8 -8 -8 -9 -9 -10 -10 -11 -11 -11 -12 -12 -12 -12 -13 -13 -14 -15 -17 -20 -21
-6 -6 -6 -6 -6 -6 -6 -6 -6 -6 -6 -7 -7 -7 -7 -7 -7 -7 -8 -7 -8 -8 -8 -8 -8 -8 -9 -9 -9 -10 -11 -11 -11 -11 -12 -12 -12 -13 -13 -13 -14 -16 -19 -21 -21
-6 -6 -6 -6 -6 -6 -6 -6 -7 -7 -7 -7 -7 -7 -7 -7 -7 -7 -7 -8 -8 -8 -8 -8 -8 -8 -9 -9 -10 -10 -11 -11 -11 -11 -12 -12 -13 -13 -13 -15 -15 -17 -20 -21 -21
-7 -7 -7 -7 -7 -7 -7 -7 -7 -7 -7 -7 -7 -7 -7 -7 -7 -8 -8 -8 -8 -8 -8 -8 -8 -8 -9 -10 -10 -10 -11 -11 -11 -12 -12 -12 -13 -13 -14 -15 -16 -20 -21 -21 -21
-7 -7 -7 -7 -7 -7 -7 -7 -7 -7 -7 -7 -7 -7 -8 -8 -8 -8 -8 -8 -8 -8 -8 -8 -8 -8 -9 -10 -10 -11 -11 -11 -11 -12 -12 -12 -12 -13 -14 -15 -15 -18 -21 -21 -20
-7 -7 -7 -7 -7 -7 -7 -7 -7 -7 -7 -7 -7 -8 -8 -8 -8 -8 -8 -8 -8 -8 -8 -8 -8 -9 -9 -10 -10 -11 -11 -11 -12 -12 -12 -12 -12 -13 -14 -14 -16 -18 -20 -20 -20
-7 -7 -7 -7 -7 -7 -7 -7 -7 -7 -7 -7 -8 -8 -8 -8 -8 -8 -8 -8 -8 -8 -8 -8 -9 -9 -9 -10 -10 -11 -11 -11 -12 -12 -12 -12 -13 -13 -14 -15 -16 -18 -19 -19 -20
-8 -7 -7 -7 -7 -7 -7 -7 -7 -8 -8 -7 -8 -8 -8 -8 -8 -8 -8 -8 -8 -8 -8 -9 -9 -9 -10 -10 -11 -11 -11 -11 -12 -12 -12 -12 -13 -14 -15 -15 -17 -18 -19 -19 -19
-8 -8 -8 -8 -8 -8 -8 -8 -8 -8 -8 -7 -8 -8 -8 -8 -8 -8 -8 -8 -8 -8 -9 -9 -9 -10 -10 -10 -11 -11 -11 -11 -11 -12 -12 -12 -13 -14 -15 -16 -17 -18 -19 -19 -19
-8 -8 -8 -8 -8 -8 -8 -8 -8 -8 -8 -8 -8 -8 -8 -8 -8 -8 -8 -8 -8 -9 -9 -9 -9 -10 -10 -11 -11 -11 -11 -11 -11 -12 -12 -12 -13 -13 -15 -15 -17 -19 -19 -19 -19
-8 -8 -8 -8 -8 -8 -8 -8 -8 -8 -8 -8 -8 -8 -8 -8 -8 -8 -8 -8 -8 -9 -9 -9 -10 -10 -10 -11 -11 -11 -11 -11 -11 -12 -12 -12 -13 -13 -14 -15 -16 -19 -19 -19 -19
-8 -9 -8 -8 -8 -8 -8 -8 -8 -8 -8 -8 -8 -8 -8 -8 -8 -8 -8 -8 -8 -9 -9 -9 -10 -10 -11 -11 -11 -11 -11 -11 -11 -11 -12 -12 -13 -13 -14 -15 -17 -19 -19 -19 -19
-9 -9 -9 -8 -8 -8 -8 -8 -8 -8 -8 -8 -8 -8 -8 -8 -8 -8 -8 -8 -9 -9 -9 -10 -10 -10 -11 -11 -11 -12 -11 -12 -12 -11 -12 -12 -13 -13 -14 -15 -16 -18 -19 -19 -19
Height
5895 5894 5892 5890 5888 5887 5888 5888 5887 5887 5887 5888 5888 5888 5888 5888 5888 5888 5887 5887 5886 5885 5884 5882 5881 5881 5879 5877 5875 5873 5872 5870 5867 5864 5860 5856 5851 5847 5842 5837 5830 5823 5818 5812 5806
5896 5894 5892 5890 5889 5888 5887 5887 5887 5887 5887 5888 5887 5887 5888 5888 5888 5888 5887 5886 5886 5885 5884 5883 5881 5880 5879 5877 5874 5872 5870 5867 5864 5860 5856 5852 5847 5843 5837 5830 5823 5818 5811 5803 5796
5896 5894 5892 5890 5889 5889 5888 5888 5888 5888 5887 5888 5888 5888 5889 5888 5889 5888 5888 5887 5887 5886 5884 5882 5881 5880 5877 5875 5873 5870 5866 5862 5859 5855 5851 5846 5841 5835 5828 5821 5815 5809 5801 5795 5788
5896 5894 5892 5891 5890 5890 5889 5889 5889 5889 5889 5889 5889 5889 5889 5889 5890 5889 5889 5888 5887 5885 5883 5881 5879 5878 5877 5875 5872 5868 5864 5860 5855 5851 5846 5841 5835 5828 5821 5815 5809 5800 5793 5786 5778
5896 5894 5893 5892 5891 5890 5890 5890 5890 5890 5889 5890 5891 5890 5890 5889 5889 5889 5889 5888 5887 5885 5882 5880 5879 5877 5875 5873 5870 5866 5862 5857 5852 5846 5840 5835 5828 5822 5815 5809 5801 5792 5785 5777 5767
5896 5894 5893 5893 5892 5891 5891 5891 5891 5890 5891 5891 5891 5891 5891 5890 5889 5889 5889 5888 5887 5885 5883 5880 5878 5876 5874 5871 5867 5863 5858 5852 5846 5840 5834 5828 5822 5815 5810 5803 5793 5785 5776 5765 5753
5897 5895 5894 5893 5893 5892 5892 5892 5892 5891 5892 5892 5891 5891 5891 5891 5889 5889 5889 5889 5887 5885 5883 5881 5878 5874 5871 5867 5863 5857 5853 5847 5839 5835 5829 5823 5818 5810 5804 5795 5786 5777 5766 5754 5740
5896 5895 5894 5894 5894 5893 5892 5892 5892 5892 5892 5892 5892 5892 5892 5891 5891 5891 5890 5889 5886 5885 5883 5880 5877 5874 5870 5865 5860 5854 5849 5843 5837 5831 5824 5818 5813 5806 5798 5789 5779 5768 5757 5743 5727
5896 5895 5895 5894 5895 5894 5893 5893 5893 5893 5893 5893 5894 5893 5894 5893 5892 5892 5891 5889 5887 5885 5883 5880 5876 5872 5868 5863 5858 5851 5845 5839 5833 5826 5820 5814 5807 5800 5790 5781 5770 5759 5747 5732 5716
5896 5895 5895 5895 5896 5896 5895 5895 5895 5895 5895 5895 5895 5897 5895 5895 5894 5894 5892 5890 5888 5886 5883 5879 5876 5871 5866 5859 5851 5845 5839 5833 5827 5822 5814 5807 5800 5792 5784 5774 5763 5751 5737 5721 5702
5895 5896 5896 5896 5897 5898 5898 5897 5899 5898 5897 5897 5897 5897 5897 5897 5896 5895 5893 5891 5889 5886 5882 5878 5874 5867 5862 5856 5850 5844 5837 5829 5822 5815 5810 5803 5796 5788 5778 5767 5755 5741 5726 5709 5691
5894 5896 5897 5898 5898 5899 5900 5899 5899 5901 5900 5899 5899 5899 5899 5899 5898 5896 5894 5893 5889 5886 5882 5879 5874 5869 5863 5858 5850 5842 5833 5826 5819 5813 5807 5800 5793 5784 5773 5761 5746 5729 5712 5693 5681
5893 5895 5897 5898 5899 5900 5901 5902 5902 5902 5902 5902 5902 5901 5901 5900 5899 5896 5895 5892 5889 5886 5882 5879 5874 5867 5861 5853 5845 5838 5830 5823 5817 5810 5802 5794 5790 5779 5766 5752 5733 5713 5694 5681 5669
5891 5893 5896 5898 5900 5900 5902 5903 5903 5903 5904 5905 5904 5903 5902 5901 5899 5897 5895 5893 5890 5886 5883 5878 5873 5866 5859 5851 5845 5837 5831 5823 5815 5807 5800 5792 5785 5773 5759 5743 5724 5706 5690 5676 5666
5889 5892 5894 5897 5898 5900 5903 5903 5904 5905 5905 5906 5905 5904 5902 5902 5900 5897 5895 5892 5889 5885 5882 5878 5871 5864 5857 5851 5844 5837 5828 5820 5812 5805 5795 5787 5777 5767 5752 5737 5721 5703 5684 5669 5660
5887 5890 5892 5895 5897 5899 5901 5903 5904 5906 5905 5905 5904 5903 5902 5900 5899 5896 5894 5892 5888 5884 5881 5876 5870 5864 5856 5848 5840 5833 5825 5818 5811 5801 5792 5781 5771 5760 5746 5730 5713 5692 5674 5661 5658
5884 5887 5890 5893 5896 5898 5899 5902 5904 5903 5905 5905 5903 5902 5901 5900 5898 5896 5893 5890 5887 5884 5879 5874 5868 5861 5852 5845 5838 5829 5823 5817 5808 5796 5788 5778 5767 5754 5738 5720 5699 5679 5667 5659 5656
5880 5884 5887 5891 5893 5896 5898 5901 5902 5903 5903 5903 5902 5901 5900 5899 5897 5894 5892 5889 5886 5882 5877 5872 5867 5859 5852 5846 5838 5831 5822 5813 5803 5796 5788 5776 5764 5751 5734 5715 5690 5674 5664 5660 5658
5876 5880 5884 5888 5891 5893 5896 5898 5899 5900 5901 5901 5901 5900 5899 5897 5896 5893 5890 5888 5884 5880 5876 5870 5864 5857 5849 5842 5836 5828 5819 5810 5802 5793 5782 5772 5762 5750 5731 5715 5697 5679 5668 5664 5661
5871 5875 5880 5884 5887 5890 5893 5895 5897 5898 5898 5899 5899 5898 5897 5896 5894 5892 5889 5886 5882 5878 5874 5869 5863 5855 5848 5841 5833 5824 5817 5807 5796 5787 5779 5772 5759 5744 5733 5716 5697 5680 5672 5666 5662
5865 5870 5876 5880 5884 5887 5890 5892 5893 5894 5896 5896 5896 5895 5895 5894 5892 5890 5887 5884 5880 5877 5872 5867 5861 5854 5846 5839 5831 5824 5815 5806 5797 5788 5776 5765 5756 5743 5726 5710 5693 5680 5673 5671 5663
5859 5865 5871 5876 5881 5883 5886 5888 5890 5891 5892 5893 5893 5893 5892 5891 5889 5887 5885 5881 5878 5875 5870 5865 5859 5852 5846 5838 5831 5824 5815 5806 5796 5786 5776 5766 5755 5739 5724 5708 5691 5681 5673 5668 5664
5853 5860 5866 5870 5875 5879 5882 5884 5886 5887 5889 5889 5890 5890 5889 5888 5887 5885 5882 5880 5876 5873 5868 5863 5857 5851 5844 5839 5830 5823 5815 5806 5796 5786 5775 5764 5753 5737 5722 5705 5691 5683 5678 5672 5666
5847 5853 5859 5865 5870 5874 5878 5880 5883 5884 5885 5886 5887 5887 5887 5886 5884 5883 5880 5877 5874 5871 5866 5861 5855 5850 5844 5837 5830 5822 5814 5805 5795 5785 5774 5764 5753 5740 5723 5709 5692 5683 5678 5671 5667
5839 5846 5854 5860 5865 5869 5873 5876 5879 5881 5882 5883 5884 5884 5884 5883 5882 5880 5878 5875 5871 5868 5864 5859 5854 5848 5842 5836 5829 5822 5814 5805 5796 5785 5774 5764 5752 5739 5724 5709 5692 5682 5677 5672 5667
5832 5840 5847 5853 5858 5863 5867 5871 5874 5876 5878 5879 5880 5881 5881 5880 5880 5877 5875 5872 5868 5865 5862 5857 5853 5847 5841 5835 5829 5821 5814 5805 5796 5786 5776 5764 5752 5739 5724 5707 5690 5680 5678 5674 5669
5825 5832 5840 5845 5851 5857 5863 5866 5869 5872 5874 5875 5876 5877 5877 5878 5877 5875 5872 5869 5866 5863 5859 5855 5850 5845 5840 5834 5828 5822 5813 5805 5796 5786 5776 5764 5753 5740 5724 5708 5694 5683 5677 5673 5669
Wind_Speed
4 6 7 5 3 1 2 3 4 5 5 5 5 6 6 4 2 2 1 1 1 2 3 4 6 7 10 12 13 15 17 18 21 24 26 29 32 35 39 42 45 47 49 52 54
4 7 5 3 1 1 3 5 5 5 5 5 6 6 5 3 3 2 1 1 2 4 6 9 10 12 13 14 17 19 21 23 24 25 28 32 36 38 41 43 46 48 51 54 57
3 3 3 2 3 3 4 5 6 6 6 6 6 6 5 4 2 2 1 2 5 7 7 9 10 12 14 16 17 19 22 25 28 31 35 37 38 40 42 44 46 48 51 53 55
1 3 3 3 4 5 6 6 7 8 7 6 5 4 4 3 2 2 2 3 6 8 6 8 11 13 14 16 19 23 27 29 33 35 37 37 39 40 42 45 46 48 50 52 57
1 3 3 4 4 5 6 7 7 8 7 6 5 4 2 1 2 2 3 5 5 5 8 10 13 15 18 20 24 26 29 31 33 35 36 37 38 40 41 41 43 46 51 55 60
3 4 2 3 3 6 7 6 7 7 7 7 5 3 2 2 1 3 3 4 4 7 10 14 17 18 19 21 24 26 29 30 33 34 35 36 36 37 38 38 44 49 54 60 66
4 4 2 4 3 5 7 8 8 7 6 5 4 3 2 1 3 4 4 6 8 11 13 14 17 20 21 23 25 28 29 31 33 33 33 33 33 36 38 43 47 51 56 63 71
5 3 2 6 4 5 7 7 6 5 4 4 4 3 1 3 4 4 7 9 11 12 14 17 20 20 22 24 26 27 29 29 31 31 32 34 35 38 40 43 48 54 61 68 75
6 4 5 8 6 5 9 9 7 5 5 4 4 3 3 5 8 10 11 12 14 15 15 17 21 22 24 26 27 29 30 30 31 32 33 35 37 39 40 45 53 58 65 72 73
8 7 8 9 7 7 8 8 8 7 6 6 8 9 11 11 13 12 12 13 14 15 16 18 22 23 27 31 33 35 34 34 33 32 34 38 39 39 43 51 57 61 68 73 69
11 11 13 14 12 11 9 9 9 10 11 13 14 15 15 15 12 11 11 12 14 19 20 21 25 28 31 33 34 35 33 34 34 35 36 37 38 41 47 54 60 65 70 73 67
16 16 15 15 14 11 11 12 13 14 15 16 15 14 12 10 9 9 11 14 17 20 22 24 26 29 32 32 34 34 34 35 35 35 35 36 39 43 49 56 63 69 74 69 56
20 18 17 16 14 13 12 12 13 14 14 13 12 10 9 8 8 11 13 15 18 20 22 24 27 31 34 36 37 35 35 35 34 34 35 39 41 45 52 58 67 71 71 60 44
23 22 20 18 14 14 13 12 12 12 11 9 7 6 5 5 8 11 13 15 17 19 21 24 29 32 35 35 35 34 33 32 34 35 37 41 46 49 55 63 71 75 69 54 33
27 25 22 19 17 15 13 10 10 9 7 5 4 4 4 6 9 10 13 15 18 20 23 26 31 34 34 34 35 34 33 35 35 37 41 46 51 52 59 66 71 78 66 48 28
30 27 24 22 19 17 14 11 9 6 4 3 2 2 4 6 8 11 13 15 18 20 23 26 30 33 34 36 38 36 35 36 37 40 44 49 53 56 63 70 77 75 60 41 23
32 29 26 24 21 18 15 12 9 5 4 3 2 2 3 5 8 11 15 17 18 20 23 27 31 34 36 37 37 36 37 38 41 46 48 50 55 60 66 72 80 75 51 32 25
35 31 28 25 22 19 15 12 8 6 5 6 7 6 6 7 10 12 15 16 18 20 23 27 31 34 35 36 37 35 37 41 44 47 47 52 56 62 68 74 77 61 44 30 27
38 34 31 27 23 19 16 12 10 10 9 9 10 10 9 9 11 14 15 16 18 21 24 28 31 34 36 38 38 38 40 44 46 48 52 55 58 63 69 72 73 51 31 25 25
41 37 33 29 26 21 17 13 12 14 14 13 13 13 12 12 13 13 15 16 19 21 24 28 31 34 36 38 39 39 43 47 49 51 53 55 58 63 69 75 68 41 23 24 26
44 41 36 32 29 24 19 17 15 16 16 15 15 14 14 14 14 14 15 16 18 20 23 27 30 33 36 38 39 40 44 46 47 49 53 58 58 64 71 74 60 34 25 28 29
45 43 39 35 31 27 22 19 18 17 15 14 14 13 13 13 13 14 15 16 18 20 23 26 29 31 34 36 37 39 43 45 47 50 52 55 59 65 69 75 56 30 25 28 30
47 44 41 37 33 29 25 22 21 17 15 13 12 11 10 11 13 13 15 17 18 20 23 27 29 30 33 35 36 38 42 44 46 50 52 55 59 64 69 70 56 28 26 27 27
49 47 44 39 35 32 28 25 21 18 15 12 11 10 10 11 12 14 15 17 19 20 23 26 28 30 30 32 33 36 43 44 48 50 52 56 58 64 67 73 54 26 25 26 26
51 48 43 40 37 33 30 25 21 18 16 14 12 11 11 12 13 15 16 17 19 20 22 25 27 28 29 30 31 35 41 43 46 48 52 55 59 65 69 73 59 24 20 23 23
50 48 46 41 39 35 31 26 23 20 17 15 13 12 12 12 13 15 18 19 20 20 21 23 25 27 27 27 29 34 39 40 43 48 53 55 58 63 69 72 59 30 19 22 24
50 48 47 44 40 36 32 29 25 22 19 16 14 13 12 12 14 16 18 20 20 21 21 22 24 26 26 27 28 32 36 38 42 50 54 55 57 62 69 74 60 33 17 21 22
Wind_Direction
312 326 320 323 317 263 170 153 160 166 173 179 181 192 199 195 197 237 242 239 263 309 314 294 289 301 300 293 299 307 313 311 306 304 301 299 298 301 303 304 302 300 300 300 300
327 330 334 355 337 164 160 150 149 156 157 172 184 192 186 164 149 158 161 328 343 334 331 317 315 309 307 318 323 320 317 308 304 299 297 299 303 304 303 301 298 302 303 303 303
339 349 37 64 85 120 145 147 149 152 156 151 138 134 131 125 117 58 27 22 346 324 325 323 326 330 330 326 317 311 306 306 305 307 308 305 305 305 305 305 306 305 303 304 306
357 38 74 76 96 118 132 140 149 152 145 141 142 145 149 147 106 61 340 351 336 316 331 332 324 322 322 321 314 311 311 309 307 305 304 305 306 308 304 305 308 307 306 306 308
117 61 93 89 114 126 127 135 145 148 146 145 150 151 136 146 104 50 337 339 326 318 324 328 331 330 325 319 318 317 314 312 309 308 309 310 306 305 308 312 309 308 309 311 309
127 80 129 120 117 134 138 143 151 155 153 155 158 163 136 146 98 3 341 343 343 335 341 338 334 333 333 329 326 323 320 318 314 314 313 310 311 314 317 316 312 314 315 315 312
135 86 142 152 151 137 152 160 167 165 160 162 169 154 161 130 41 10 7 357 357 10 7 356 353 351 346 341 336 333 329 325 323 321 318 314 320 320 323 317 316 316 316 315 315
142 97 143 163 172 150 148 141 138 146 156 157 143 128 112 86 58 33 36 40 40 29 16 11 6 359 353 350 343 338 335 331 324 325 323 323 324 323 321 317 318 318 319 318 319
155 132 163 167 173 155 136 125 125 135 137 122 114 120 114 90 76 66 68 55 41 34 22 12 4 359 358 352 347 342 339 335 332 329 328 326 325 327 321 321 321 321 318 320 323
164 148 162 157 151 139 128 131 137 132 122 121 115 113 112 96 96 85 67 55 38 24 17 8 2 2 356 355 351 346 341 339 336 334 334 330 331 327 325 323 322 321 321 325 321
166 155 154 140 135 129 125 118 118 120 120 116 115 114 107 106 91 69 57 38 25 18 13 7 4 1 360 354 351 345 345 342 340 338 334 331 331 328 326 325 325 325 329 331 327
168 160 157 151 142 137 129 124 120 118 118 119 118 113 110 99 78 56 35 25 18 13 9 5 2 357 354 353 352 352 349 344 344 336 334 332 334 332 329 329 329 330 335 331 328
173 169 167 163 151 145 139 132 130 126 122 119 119 114 105 79 58 38 23 14 12 7 4 1 359 356 354 356 357 354 352 346 341 337 335 335 339 336 335 334 334 336 334 328 326
178 174 170 166 160 156 155 151 145 140 133 127 130 123 92 49 27 22 11 9 1 3 2 0 358 355 356 360 359 356 351 346 345 340 338 339 342 340 337 335 338 337 333 331 324
183 180 176 176 169 165 166 166 157 153 137 132 119 105 60 29 14 7 6 358 360 1 360 360 358 357 358 359 0 358 352 352 348 346 345 345 344 343 340 339 336 339 336 334 336
188 186 183 181 178 174 171 172 170 170 169 153 119 64 18 5 1 359 350 355 359 356 358 359 357 357 358 360 2 357 356 355 352 351 352 350 348 348 343 341 341 340 342 339 347
194 191 189 187 185 184 183 181 186 200 206 229 260 297 322 344 345 346 348 352 353 353 357 358 357 359 359 2 1 357 353 354 358 356 356 353 352 349 346 346 345 345 344 353 3
198 195 193 191 190 190 191 193 203 228 233 255 262 278 297 322 335 339 340 346 347 352 354 356 357 358 360 1 0 358 357 358 356 356 358 359 355 351 348 350 348 347 354 5 2
200 198 196 195 195 197 205 214 229 247 264 270 271 278 290 310 324 330 334 341 345 350 353 355 357 358 360 1 0 359 359 359 356 359 3 2 358 354 351 353 349 353 10 12 4
201 202 201 201 201 205 215 230 246 252 263 275 279 280 287 303 318 325 330 337 343 348 353 353 355 357 360 0 1 360 0 358 358 358 1 4 360 353 352 353 353 2 27 19 8
204 205 206 207 208 213 224 238 256 256 260 273 275 278 288 303 314 323 331 335 340 346 350 350 355 357 360 0 2 0 359 360 1 1 360 4 360 354 354 357 358 13 21 10 7
207 208 209 213 215 220 228 240 255 255 259 268 274 280 290 302 314 323 330 333 337 342 345 348 354 357 360 0 2 3 3 4 4 2 1 2 1 356 356 359 359 13 15 6 1
209 210 212 216 219 224 230 240 248 246 253 260 266 274 287 302 313 322 329 331 334 339 342 346 351 355 359 1 1 5 5 5 5 3 2 2 360 359 359 2 358 2 6 2 5
208 211 212 216 220 225 232 240 238 240 242 250 261 275 291 303 314 320 327 329 332 337 340 343 348 354 359 2 359 4 5 5 4 4 2 2 2 360 357 3 358 354 357 358 6
209 211 212 216 221 226 233 231 231 233 236 245 258 274 288 302 312 320 324 328 329 333 336 339 344 350 357 1 359 2 3 5 4 4 2 3 2 0 356 2 360 357 359 4 7
210 210 213 216 222 227 227 224 223 227 234 244 259 271 285 298 311 320 325 326 324 327 332 337 341 348 356 0 358 0 1 5 6 8 5 4 3 360 356 4 3 1 6 10 6
209 210 213 215 220 222 222 221 222 225 233 242 253 266 280 295 312 320 324 323 325 325 328 334 338 345 353 358 357 359 360 4 6 9 5 5 5 2 359 4 5 3 4 15 7